SCQ7Y ESOW-ESOW

Flight info

Callsign SCQ7Y
Flight time 1h 6m
Altitude 4000
Route DCT ARS STAY1/0130 ARS DCT
Aircraft C172/L-V/N

Departure

Time 2026-05-06 13:56
Airport Stockholm Västerås Airport (ESOW)

Arrival

Time 2026-05-06 15:03
Airport Stockholm Västerås Airport (ESOW)
Time Latitude Longitude Altitude Speed Heading
2026-05-06 13:33 59.58660 16.62566 17 ft 0 kts 279°
2026-05-06 13:49 59.58651 16.62552 17 ft 9 kts 160°
2026-05-06 13:49 59.58596 16.62678 15 ft 16 kts 100°
2026-05-06 13:49 59.58611 16.62868 15 ft 13 kts 15°
2026-05-06 13:49 59.58717 16.62897 15 ft 18 kts
2026-05-06 13:50 59.58838 16.62931 17 ft 17 kts
2026-05-06 13:50 59.58962 16.62964 21 ft 11 kts
2026-05-06 13:50 59.59041 16.62986 23 ft 13 kts
2026-05-06 13:50 59.59144 16.63014 25 ft 17 kts
2026-05-06 13:51 59.59258 16.63043 26 ft 14 kts
2026-05-06 13:51 59.59366 16.63072 28 ft 17 kts
2026-05-06 13:51 59.59463 16.63099 30 ft 15 kts
2026-05-06 13:51 59.59572 16.63221 27 ft 22 kts 50°
2026-05-06 13:52 59.59615 16.63420 22 ft 10 kts 85°
2026-05-06 13:52 59.59615 16.63445 22 ft 0 kts 90°
2026-05-06 13:55 59.59610 16.63528 22 ft 12 kts 101°
2026-05-06 13:55 59.59563 16.63625 23 ft 13 kts 189°
2026-05-06 13:55 59.59303 16.63520 30 ft 61 kts 191°
2026-05-06 13:55 59.58857 16.63329 203 ft 66 kts 191°
2026-05-06 13:56 59.58398 16.63114 404 ft 74 kts 191°
2026-05-06 13:56 59.57866 16.62876 600 ft 78 kts 193°
2026-05-06 13:56 59.57344 16.62595 855 ft 79 kts 191°
2026-05-06 13:56 59.56801 16.62387 1159 ft 79 kts 192°
2026-05-06 13:57 59.56254 16.62228 1385 ft 79 kts 187°
2026-05-06 13:57 59.55704 16.62112 1594 ft 81 kts 190°
2026-05-06 13:57 59.55154 16.61978 1763 ft 80 kts 189°
2026-05-06 13:57 59.54594 16.61820 1937 ft 80 kts 190°
2026-05-06 13:58 59.54042 16.61683 2134 ft 81 kts 189°
2026-05-06 13:58 59.53495 16.61491 2304 ft 80 kts 196°
2026-05-06 13:58 59.52950 16.61186 2491 ft 81 kts 199°
2026-05-06 13:58 59.52419 16.60844 2662 ft 81 kts 196°
2026-05-06 13:59 59.51879 16.60532 2846 ft 81 kts 197°
2026-05-06 13:59 59.51337 16.60211 3029 ft 82 kts 197°
2026-05-06 13:59 59.50778 16.60040 3212 ft 83 kts 161°
2026-05-06 13:59 59.50621 16.61074 3478 ft 93 kts 65°
2026-05-06 14:00 59.51024 16.62078 3735 ft 95 kts 46°
2026-05-06 14:00 59.51442 16.63097 3896 ft 95 kts 50°
2026-05-06 14:00 59.51784 16.64219 3985 ft 103 kts 81°
2026-05-06 14:00 59.51820 16.65731 3990 ft 115 kts 90°
2026-05-06 14:01 59.51823 16.67351 3991 ft 123 kts 92°
2026-05-06 14:01 59.51816 16.69065 3985 ft 126 kts 91°
2026-05-06 14:01 59.51811 16.70801 3987 ft 128 kts 91°
2026-05-06 14:01 59.51806 16.72566 3985 ft 129 kts 91°
2026-05-06 14:02 59.51798 16.74326 3984 ft 130 kts 92°
2026-05-06 14:02 59.51798 16.76138 3990 ft 131 kts 91°
2026-05-06 14:02 59.51792 16.77916 3988 ft 131 kts 92°
2026-05-06 14:02 59.51828 16.79698 3978 ft 130 kts 97°
2026-05-06 14:03 59.51638 16.81417 3979 ft 129 kts 107°
2026-05-06 14:03 59.51344 16.83078 3985 ft 128 kts 114°
2026-05-06 14:03 59.50916 16.84629 3980 ft 128 kts 126°
2026-05-06 14:03 59.50425 16.86062 3981 ft 127 kts 126°
2026-05-06 14:04 59.50215 16.87731 3988 ft 130 kts 83°
2026-05-06 14:04 59.50613 16.89350 4000 ft 138 kts 39°
2026-05-06 14:04 59.51399 16.90484 3975 ft 138 kts 36°
2026-05-06 14:04 59.52151 16.91677 3979 ft 139 kts 37°
2026-05-06 14:05 59.52961 16.92708 3986 ft 141 kts 28°
2026-05-06 14:05 59.53795 16.93660 3981 ft 136 kts 28°
2026-05-06 14:05 59.54614 16.94588 3982 ft 134 kts 23°
2026-05-06 14:05 59.55518 16.95006 3979 ft 137 kts
2026-05-06 14:06 59.56469 16.95352 3983 ft 140 kts
2026-05-06 14:06 59.57420 16.95649 3971 ft 135 kts 355°
2026-05-06 14:06 59.58299 16.95158 3993 ft 132 kts 337°
2026-05-06 14:06 59.59180 16.94631 3989 ft 132 kts 340°
2026-05-06 14:07 59.60051 16.94063 3987 ft 131 kts 328°
2026-05-06 14:07 59.60785 16.93054 3985 ft 130 kts 320°
2026-05-06 14:07 59.61518 16.92016 3991 ft 130 kts 319°
2026-05-06 14:07 59.62254 16.90956 3984 ft 129 kts 317°
2026-05-06 14:08 59.62895 16.89738 3993 ft 129 kts 310°
2026-05-06 14:08 59.63523 16.88486 3981 ft 128 kts 310°
2026-05-06 14:08 59.64132 16.87229 3993 ft 129 kts 310°
2026-05-06 14:08 59.64759 16.85919 3982 ft 131 kts 309°
2026-05-06 14:09 59.65379 16.84628 3993 ft 127 kts 309°
2026-05-06 14:09 59.65982 16.83355 3984 ft 129 kts 309°
2026-05-06 14:09 59.66599 16.82080 3982 ft 128 kts 310°
2026-05-06 14:09 59.67198 16.80796 3986 ft 126 kts 302°
2026-05-06 14:10 59.67700 16.79359 3986 ft 127 kts 301°
2026-05-06 14:10 59.68172 16.77963 3989 ft 119 kts 299°
2026-05-06 14:10 59.68636 16.76614 3984 ft 117 kts 300°
2026-05-06 14:10 59.68887 16.75170 3988 ft 111 kts 256°
2026-05-06 14:11 59.68526 16.73845 3992 ft 111 kts 237°
2026-05-06 14:11 59.68127 16.72545 3995 ft 110 kts 236°
2026-05-06 14:11 59.67759 16.71212 3990 ft 112 kts 242°
2026-05-06 14:11 59.67401 16.69870 3993 ft 110 kts 238°
2026-05-06 14:12 59.67033 16.68574 3988 ft 106 kts 239°
2026-05-06 14:12 59.66660 16.67318 3995 ft 106 kts 235°
2026-05-06 14:12 59.66251 16.66072 3994 ft 109 kts 235°
2026-05-06 14:12 59.65751 16.64968 3990 ft 107 kts 206°
2026-05-06 14:13 59.65026 16.64956 4003 ft 112 kts 157°
2026-05-06 14:13 59.64492 16.66061 3995 ft 117 kts 116°
2026-05-06 14:13 59.64373 16.67662 4002 ft 116 kts 94°
2026-05-06 14:13 59.64295 16.69276 3984 ft 121 kts 91°
2026-05-06 14:14 59.64642 16.70744 4006 ft 121 kts 44°
2026-05-06 14:14 59.65387 16.71521 3994 ft 121 kts 12°
2026-05-06 14:14 59.66198 16.71982 3997 ft 123 kts 14°
2026-05-06 14:14 59.67019 16.72468 3999 ft 123 kts 13°
2026-05-06 14:15 59.67840 16.72941 3996 ft 122 kts 13°
2026-05-06 14:15 59.68663 16.72897 4001 ft 119 kts 338°
2026-05-06 14:15 59.69364 16.72087 3998 ft 117 kts 309°
2026-05-06 14:15 59.69782 16.70724 3997 ft 114 kts 283°
2026-05-06 14:16 59.69834 16.69198 4000 ft 111 kts 254°
2026-05-06 14:16 59.69428 16.67967 4006 ft 108 kts 214°
2026-05-06 14:16 59.68706 16.67524 3993 ft 107 kts 195°
2026-05-06 14:16 59.67993 16.67110 3996 ft 108 kts 197°
2026-05-06 14:17 59.67268 16.66728 3999 ft 108 kts 195°
2026-05-06 14:17 59.66531 16.66336 3997 ft 111 kts 195°
2026-05-06 14:17 59.65786 16.65983 4000 ft 112 kts 184°
2026-05-06 14:17 59.65118 16.66757 4007 ft 122 kts 124°
2026-05-06 14:18 59.64864 16.67745 3987 ft 122 kts 118°
2026-05-06 14:18 59.64485 16.69227 3982 ft 121 kts 120°
2026-05-06 14:18 59.64100 16.70690 3986 ft 119 kts 120°
2026-05-06 14:18 59.63720 16.72139 3996 ft 120 kts 120°
2026-05-06 14:19 59.63344 16.73572 3982 ft 115 kts 115°
2026-05-06 14:19 59.63458 16.75058 3989 ft 114 kts 48°
2026-05-06 14:19 59.64039 16.76173 3992 ft 117 kts 45°
2026-05-06 14:19 59.64602 16.77349 3985 ft 119 kts 45°
2026-05-06 14:20 59.65175 16.78522 3986 ft 118 kts 44°
2026-05-06 14:20 59.65743 16.79675 3990 ft 118 kts 45°
2026-05-06 14:20 59.66314 16.80861 3987 ft 121 kts 45°
2026-05-06 14:20 59.66895 16.82080 3981 ft 120 kts 45°
2026-05-06 14:21 59.67465 16.83281 3980 ft 121 kts 45°
2026-05-06 14:21 59.68024 16.84506 3977 ft 120 kts 53°
2026-05-06 14:21 59.68191 16.86047 3977 ft 115 kts 103°
2026-05-06 14:21 59.67796 16.87399 3972 ft 113 kts 136°
2026-05-06 14:22 59.67242 16.88477 3979 ft 114 kts 139°
2026-05-06 14:22 59.66673 16.89560 3982 ft 113 kts 140°
2026-05-06 14:22 59.66021 16.90435 3980 ft 113 kts 151°
2026-05-06 14:22 59.65359 16.91252 3985 ft 114 kts 150°
2026-05-06 14:23 59.64664 16.92063 3976 ft 114 kts 152°
2026-05-06 14:23 59.63973 16.92735 3977 ft 112 kts 165°
2026-05-06 14:23 59.63212 16.93075 3981 ft 111 kts 171°
2026-05-06 14:23 59.62459 16.93348 3981 ft 110 kts 171°
2026-05-06 14:24 59.61705 16.93497 3977 ft 108 kts 187°
2026-05-06 14:24 59.60970 16.93288 3982 ft 108 kts 188°
2026-05-06 14:24 59.60221 16.93110 3983 ft 109 kts 186°
2026-05-06 14:24 59.59465 16.92981 3978 ft 109 kts 188°
2026-05-06 14:25 59.58737 16.92616 3985 ft 108 kts 196°
2026-05-06 14:25 59.58000 16.92220 3987 ft 110 kts 194°
2026-05-06 14:25 59.57249 16.91826 3991 ft 114 kts 196°
2026-05-06 14:25 59.56496 16.91343 3983 ft 112 kts 201°
2026-05-06 14:26 59.55768 16.90797 3988 ft 113 kts 201°
2026-05-06 14:26 59.55011 16.90247 3982 ft 116 kts 200°
2026-05-06 14:26 59.54257 16.89690 3982 ft 117 kts 201°
2026-05-06 14:26 59.53501 16.89131 3955 ft 116 kts 201°
2026-05-06 14:27 59.52769 16.88510 3958 ft 113 kts 205°
2026-05-06 14:27 59.52080 16.87793 3960 ft 114 kts 210°
2026-05-06 14:27 59.51466 16.86855 3953 ft 111 kts 229°
2026-05-06 14:27 59.51331 16.85420 3958 ft 111 kts 282°
2026-05-06 14:28 59.51669 16.84067 3957 ft 112 kts 304°
2026-05-06 14:28 59.52159 16.82879 3958 ft 110 kts 302°
2026-05-06 14:28 59.52614 16.81677 3958 ft 110 kts 302°
2026-05-06 14:28 59.53084 16.80480 3961 ft 111 kts 304°
2026-05-06 14:29 59.53557 16.79279 3959 ft 111 kts 304°
2026-05-06 14:29 59.54039 16.78061 3973 ft 115 kts 302°
2026-05-06 14:29 59.54532 16.76781 3970 ft 118 kts 302°
2026-05-06 14:29 59.54741 16.75317 3973 ft 115 kts 252°
2026-05-06 14:30 59.54173 16.74345 3977 ft 115 kts 194°
2026-05-06 14:30 59.53384 16.74081 3968 ft 114 kts 191°
2026-05-06 14:30 59.52610 16.73812 3959 ft 111 kts 191°
2026-05-06 14:30 59.51847 16.73518 3963 ft 115 kts 192°
2026-05-06 14:31 59.51084 16.73244 3957 ft 111 kts 191°
2026-05-06 14:31 59.50330 16.72971 3962 ft 108 kts 190°
2026-05-06 14:31 59.49592 16.72701 3960 ft 107 kts 191°
2026-05-06 14:31 59.48873 16.72431 3957 ft 106 kts 191°
2026-05-06 14:32 59.48174 16.72159 3920 ft 100 kts 192°
2026-05-06 14:32 59.47481 16.71889 3790 ft 102 kts 191°
2026-05-06 14:32 59.46780 16.71627 3664 ft 105 kts 191°
2026-05-06 14:32 59.46063 16.71373 3540 ft 108 kts 191°
2026-05-06 14:33 59.45319 16.71090 3440 ft 105 kts 192°
2026-05-06 14:33 59.44599 16.70801 3335 ft 107 kts 192°
2026-05-06 14:33 59.43857 16.70510 3217 ft 108 kts 192°
2026-05-06 14:33 59.43119 16.70227 3100 ft 109 kts 192°
2026-05-06 14:34 59.42371 16.69935 2974 ft 109 kts 192°
2026-05-06 14:34 59.41625 16.69646 2817 ft 109 kts 191°
2026-05-06 14:34 59.40889 16.69371 2649 ft 109 kts 191°
2026-05-06 14:34 59.40145 16.69089 2525 ft 109 kts 191°
2026-05-06 14:35 59.39405 16.68720 2457 ft 110 kts 205°
2026-05-06 14:35 59.38864 16.67694 2461 ft 110 kts 238°
2026-05-06 14:35 59.38681 16.66228 2451 ft 110 kts 269°
2026-05-06 14:35 59.38851 16.64752 2484 ft 111 kts 277°
2026-05-06 14:36 59.39007 16.63200 2463 ft 118 kts 278°
2026-05-06 14:36 59.39169 16.61620 2462 ft 119 kts 278°
2026-05-06 14:36 59.39342 16.60045 2453 ft 116 kts 278°
2026-05-06 14:36 59.39498 16.58502 2461 ft 111 kts 279°
2026-05-06 14:37 59.39732 16.57068 2447 ft 114 kts 298°
2026-05-06 14:37 59.40339 16.56100 2446 ft 116 kts 335°
2026-05-06 14:37 59.41129 16.56008 2463 ft 116 kts
2026-05-06 14:37 59.41925 16.56380 2464 ft 120 kts 10°
2026-05-06 14:38 59.42749 16.56730 2461 ft 120 kts 11°
2026-05-06 14:38 59.43565 16.57076 2463 ft 117 kts 10°
2026-05-06 14:38 59.44354 16.57402 2463 ft 117 kts
2026-05-06 14:38 59.45159 16.57720 2457 ft 117 kts
2026-05-06 14:39 59.45936 16.58012 2461 ft 113 kts
2026-05-06 14:39 59.46700 16.58336 2456 ft 112 kts
2026-05-06 14:39 59.47488 16.58660 2343 ft 119 kts
2026-05-06 14:39 59.48322 16.59008 2171 ft 126 kts
2026-05-06 14:40 59.49184 16.59364 1977 ft 127 kts 10°
2026-05-06 14:40 59.50028 16.59718 1791 ft 118 kts 10°
2026-05-06 14:40 59.50800 16.60036 1619 ft 111 kts
2026-05-06 14:40 59.51539 16.60336 1454 ft 106 kts
2026-05-06 14:41 59.52246 16.60621 1305 ft 101 kts
2026-05-06 14:41 59.52932 16.60899 1147 ft 99 kts
2026-05-06 14:41 59.53597 16.61168 996 ft 97 kts
2026-05-06 14:41 59.54261 16.61438 842 ft 96 kts 10°
2026-05-06 14:42 59.54908 16.61701 702 ft 97 kts
2026-05-06 14:42 59.55614 16.61971 545 ft 108 kts 10°
2026-05-06 14:42 59.56360 16.62281 376 ft 106 kts 12°
2026-05-06 14:42 59.57091 16.62565 336 ft 108 kts
2026-05-06 14:43 59.57820 16.62838 567 ft 98 kts
2026-05-06 14:43 59.58520 16.63116 784 ft 99 kts
2026-05-06 14:43 59.59131 16.63359 1183 ft 87 kts
2026-05-06 14:43 59.59734 16.63608 1398 ft 89 kts
2026-05-06 14:44 59.60346 16.63818 1680 ft 90 kts
2026-05-06 14:44 59.60966 16.64006 1866 ft 90 kts
2026-05-06 14:44 59.61585 16.64184 2090 ft 89 kts
2026-05-06 14:45 59.63093 16.64752 2132 ft 128 kts 13°
2026-05-06 14:45 59.63992 16.65216 2071 ft 134 kts 12°
2026-05-06 14:45 59.64880 16.65690 2068 ft 131 kts 13°
2026-05-06 14:45 59.65748 16.66177 2074 ft 129 kts 13°
2026-05-06 14:46 59.66603 16.66649 2058 ft 125 kts 12°
2026-05-06 14:46 59.67431 16.67123 2068 ft 120 kts 13°
2026-05-06 14:46 59.68230 16.67575 2065 ft 120 kts 12°
2026-05-06 14:46 59.69038 16.68030 2060 ft 120 kts 13°
2026-05-06 14:47 59.69838 16.68497 2060 ft 120 kts 14°
2026-05-06 14:47 59.70617 16.69040 2045 ft 121 kts 31°
2026-05-06 14:47 59.71013 16.70439 2057 ft 120 kts 84°
2026-05-06 14:47 59.70741 16.71942 2054 ft 118 kts 139°
2026-05-06 14:48 59.70005 16.72346 2056 ft 108 kts 195°
2026-05-06 14:48 59.69455 16.71402 2055 ft 110 kts 243°
2026-05-06 14:48 59.69277 16.69948 2056 ft 107 kts 259°
2026-05-06 14:48 59.69163 16.68509 2062 ft 106 kts 257°
2026-05-06 14:49 59.68863 16.67250 2065 ft 102 kts 214°
2026-05-06 14:49 59.68255 16.67048 2003 ft 84 kts 189°
2026-05-06 14:49 59.67620 16.66839 1629 ft 98 kts 191°
2026-05-06 14:49 59.66957 16.66610 1469 ft 96 kts 191°
2026-05-06 14:50 59.66302 16.66383 1328 ft 96 kts 193°
2026-05-06 14:50 59.65645 16.66107 1204 ft 97 kts 191°
2026-05-06 14:50 59.64977 16.65840 1057 ft 98 kts 192°
2026-05-06 14:50 59.64310 16.65562 917 ft 97 kts 192°
2026-05-06 14:51 59.63684 16.65313 928 ft 86 kts 191°
2026-05-06 14:51 59.63121 16.65096 1215 ft 80 kts 193°
2026-05-06 14:51 59.62568 16.64883 1488 ft 81 kts 192°
2026-05-06 14:51 59.62019 16.64629 1736 ft 82 kts 193°
2026-05-06 14:52 59.61458 16.64388 2004 ft 83 kts 192°
2026-05-06 14:52 59.61080 16.64237 2057 ft 85 kts 195°
2026-05-06 14:52 59.60759 16.62945 2067 ft 95 kts 276°
2026-05-06 14:52 59.60838 16.62055 2057 ft 100 kts 275°
2026-05-06 14:53 59.60942 16.60729 2073 ft 98 kts 276°
2026-05-06 14:53 59.61232 16.59498 2055 ft 104 kts 316°
2026-05-06 14:53 59.61946 16.59186 2058 ft 112 kts
2026-05-06 14:53 59.62726 16.59512 2064 ft 115 kts 11°
2026-05-06 14:54 59.63514 16.59896 2056 ft 119 kts 12°
2026-05-06 14:54 59.64310 16.60291 2053 ft 115 kts 11°
2026-05-06 14:54 59.64944 16.61164 2056 ft 118 kts 54°
2026-05-06 14:54 59.65362 16.62589 2063 ft 119 kts 62°
2026-05-06 14:55 59.65736 16.64021 2059 ft 116 kts 62°
2026-05-06 14:55 59.66112 16.65421 2077 ft 117 kts 63°
2026-05-06 14:55 59.66506 16.66853 2064 ft 118 kts 61°
2026-05-06 14:55 59.67023 16.68113 2064 ft 118 kts 43°
2026-05-06 14:56 59.67604 16.69232 2068 ft 115 kts 43°
2026-05-06 14:56 59.68191 16.70357 2067 ft 117 kts 43°
2026-05-06 14:56 59.68773 16.71485 2055 ft 116 kts 43°
2026-05-06 14:56 59.69331 16.72620 2058 ft 116 kts 45°
2026-05-06 14:57 59.69907 16.73777 2061 ft 118 kts 43°
2026-05-06 14:57 59.70634 16.74436 2062 ft 120 kts
2026-05-06 14:57 59.71352 16.73920 2075 ft 110 kts 312°
2026-05-06 14:57 59.71630 16.72551 2073 ft 107 kts 270°
2026-05-06 14:58 59.71490 16.71134 2068 ft 106 kts 237°
2026-05-06 14:58 59.71012 16.70022 2066 ft 107 kts 225°
2026-05-06 14:58 59.70472 16.68995 2057 ft 106 kts 221°
2026-05-06 14:58 59.69861 16.68182 2054 ft 106 kts 210°
2026-05-06 14:59 59.69161 16.67754 1921 ft 104 kts 198°
2026-05-06 14:59 59.68484 16.67386 1782 ft 99 kts 194°
2026-05-06 14:59 59.67818 16.67070 1640 ft 96 kts 194°
2026-05-06 14:59 59.67171 16.66780 1509 ft 95 kts 194°
2026-05-06 15:00 59.66544 16.66521 1386 ft 91 kts 193°
2026-05-06 15:00 59.65925 16.66263 1261 ft 90 kts 193°
2026-05-06 15:00 59.65304 16.66005 1128 ft 92 kts 193°
2026-05-06 15:00 59.64682 16.65757 1002 ft 92 kts 191°
2026-05-06 15:01 59.64064 16.65510 866 ft 89 kts 191°
2026-05-06 15:01 59.63457 16.65261 741 ft 90 kts 191°
2026-05-06 15:01 59.62853 16.65009 614 ft 90 kts 188°
2026-05-06 15:01 59.62235 16.64746 491 ft 88 kts 193°
2026-05-06 15:02 59.61669 16.64494 379 ft 82 kts 191°
2026-05-06 15:02 59.61130 16.64259 274 ft 76 kts 191°
2026-05-06 15:02 59.60626 16.64066 177 ft 75 kts 188°
2026-05-06 15:02 59.60141 16.63864 68 ft 66 kts 189°
2026-05-06 15:03 59.59750 16.63706 24 ft 44 kts 194°
2026-05-06 15:03 59.59506 16.63606 21 ft 31 kts 192°
2026-05-06 15:03 59.59291 16.63516 20 ft 37 kts 190°
2026-05-06 15:03 59.59117 16.63423 20 ft 19 kts 242°
2026-05-06 15:04 59.59121 16.63265 21 ft 0 kts 281°